Weather History for Madison, MN

Change the Weather History Date:

Sunday, January 12, 2014

  Actual Average (KAQP) Record (KAQP)
Temperature  
Mean Temperature 37 °F -  
Max Temperature 44 °F 17 °F 41 °F (2014)
Min Temperature 30 °F 1 °F -16 °F (1998)
Degree Days  
Heating Degree Days 28    
Moisture  
Dew Point 31 °F    
Average Humidity 74    
Maximum Humidity 87    
Minimum Humidity 61    
Precipitation  
Precipitation 0.00 in - - ()
Sea Level Pressure  
Sea Level Pressure 29.40 in    
Wind  
Wind Speed 10 mph (WSW)    
Max Wind Speed 17 mph    
Max Gust Speed -    
Visibility 10 miles    
Events Rain    
Averages and records for this station are not official NWS values.
T = Trace of Precipitation, MM = Missing Value Source: NWS Daily Summary

Daily Weather History Graph

Daily Weather History Graph

Search for Another Location

Airport:

Trip Planner

Search our weather history database for the weather conditions in past years. The results will help you decide how hot, cold, wet, or windy it might be!

Date:

Astronomy

Jan. 12, 2014 Rise Set
Actual Time 8:00 AM CST 5:05 PM CST
Civil Twilight 7:27 AM CST 5:38 PM CST
Nautical Twilight 6:51 AM CST 6:15 PM CST
Astronomical Twilight 6:16 AM CST 6:50 PM CST
Moon 2:35 PM CST (1/12) 4:59 AM CST (1/12)
Length of Visible Light 10h 10m
Length of Day
9h 05m
Waxing Gibbous, 90% of the Moon is Illuminated
Jan 12
Waxing Gibbous
Jan 15
Full
Jan 23
Last Quarter
Jan 30
New
Feb 6
First Quarter

Hourly Weather History & Observations

Time (CST) Temp. Windchill Dew Point Humidity Pressure Visibility Wind Dir Wind Speed Gust Speed Precip Events Conditions
12:14 AM 30.2 °F 20.2 °F 24.8 °F 80% 29.46 in 10.0 mi SSE 12.7 mph - N/A   Scattered Clouds
12:33 AM 33.8 °F 24.3 °F 26.6 °F 75% 29.43 in 10.0 mi SSE 13.8 mph - N/A   Scattered Clouds
12:54 AM 33.8 °F 23.9 °F 26.6 °F 75% 29.42 in 10.0 mi SSE 15.0 mph - N/A   Clear
1:14 AM 33.8 °F 23.9 °F 26.6 °F 75% 29.40 in 10.0 mi SSE 15.0 mph - N/A   Clear
1:33 AM 33.8 °F 24.3 °F 26.6 °F 75% 29.38 in 10.0 mi SSE 13.8 mph - N/A   Clear
1:54 AM 35.6 °F 26.6 °F 28.4 °F 75% 29.37 in 10.0 mi SSE 13.8 mph - N/A   Clear
2:14 AM 35.6 °F 28.6 °F 28.4 °F 75% 29.37 in 10.0 mi SSE 9.2 mph - N/A   Clear
2:33 AM 37.4 °F 30.3 °F 28.4 °F 70% 29.36 in 10.0 mi SE 10.4 mph - N/A   Clear
2:54 AM 37.4 °F 30.8 °F 30.2 °F 75% 29.34 in 10.0 mi SE 9.2 mph - N/A   Clear
3:14 AM 37.4 °F 29.8 °F 30.2 °F 75% 29.33 in 10.0 mi SSE 11.5 mph - N/A   Scattered Clouds
3:33 AM 37.4 °F 30.3 °F 30.2 °F 75% 29.32 in 10.0 mi SE 10.4 mph - N/A   Clear
3:54 AM 37.4 °F 30.8 °F 30.2 °F 75% 29.31 in 10.0 mi SSE 9.2 mph - N/A   Scattered Clouds
4:13 AM 39.2 °F 33.0 °F 30.2 °F 70% 29.31 in 10.0 mi South 9.2 mph - N/A   Scattered Clouds
4:34 AM 39.2 °F 33.6 °F 30.2 °F 70% 29.29 in 10.0 mi South 8.1 mph - N/A Rain Light Rain
4:54 AM 39.2 °F 33.6 °F 30.2 °F 70% 29.29 in 10.0 mi SSW 8.1 mph - N/A   Mostly Cloudy
5:13 AM 39.2 °F 34.2 °F 30.2 °F 70% 29.29 in 10.0 mi SW 6.9 mph - N/A   Scattered Clouds
5:34 AM 37.4 °F 33.8 °F 30.2 °F 75% 29.31 in 10.0 mi SW 4.6 mph - N/A   Scattered Clouds
5:54 AM 37.4 °F 34.9 °F 28.4 °F 70% 29.29 in 10.0 mi SW 3.5 mph - N/A   Scattered Clouds
6:13 AM 37.4 °F 34.9 °F 28.4 °F 70% 29.28 in 10.0 mi SSW 3.5 mph - N/A   Clear
6:34 AM 35.6 °F 32.8 °F 30.2 °F 81% 29.26 in 10.0 mi South 3.5 mph - N/A   Clear
6:54 AM 37.4 °F 33.8 °F 28.4 °F 70% 29.28 in 10.0 mi SW 4.6 mph - N/A   Clear
7:13 AM 35.6 °F 29.9 °F 28.4 °F 75% 29.27 in 10.0 mi SSW 6.9 mph - N/A   Scattered Clouds
7:34 AM 37.4 °F 32.1 °F 30.2 °F 75% 29.29 in 10.0 mi WSW 6.9 mph - N/A   Mostly Cloudy
7:54 AM 39.2 °F 31.6 °F 30.2 °F 70% 29.33 in 10.0 mi West 12.7 mph - N/A   Overcast
8:13 AM 39.2 °F 33.6 °F 30.2 °F 70% 29.33 in 10.0 mi West 8.1 mph - N/A   Mostly Cloudy
8:34 AM 39.2 °F 33.0 °F 30.2 °F 70% 29.34 in 10.0 mi West 9.2 mph - N/A   Scattered Clouds
8:53 AM 37.4 °F 32.1 °F 30.2 °F 75% 29.33 in 10.0 mi West 6.9 mph - N/A   Clear
9:14 AM 37.4 °F 32.8 °F 30.2 °F 75% 29.36 in 10.0 mi West 5.8 mph - N/A   Clear
9:34 AM 39.2 °F 37.0 °F 32.0 °F 75% 29.36 in 10.0 mi West 3.5 mph - N/A   Clear
9:53 AM 39.2 °F 35.0 °F 32.0 °F 75% 29.37 in 10.0 mi West 5.8 mph - N/A   Clear
10:14 AM 37.4 °F 31.4 °F 32.0 °F 81% 29.37 in 10.0 mi West 8.1 mph - N/A   Clear
10:34 AM 41.0 °F 35.8 °F 33.8 °F 76% 29.38 in 10.0 mi WNW 8.1 mph - N/A   Clear
10:53 AM 42.8 °F 39.3 °F 33.8 °F 70% 29.37 in 10.0 mi West 5.8 mph - N/A   Clear
11:14 AM 42.8 °F 38.6 °F 33.8 °F 70% 29.38 in 10.0 mi West 6.9 mph - N/A   Clear
11:34 AM 42.8 °F 38.0 °F 33.8 °F 70% 29.38 in 10.0 mi West 8.1 mph - N/A   Clear
11:53 AM 42.8 °F 37.5 °F 33.8 °F 70% 29.38 in 10.0 mi West 9.2 mph - N/A   Clear
12:14 PM 42.8 °F 36.6 °F 33.8 °F 70% 29.37 in 10.0 mi West 11.5 mph - N/A   Clear
12:33 PM 44.6 °F 38.8 °F 33.8 °F 66% 29.37 in 10.0 mi West 11.5 mph - N/A   Clear
12:54 PM 42.8 °F 36.6 °F 32.0 °F 66% 29.37 in 10.0 mi West 11.5 mph - N/A   Clear
1:13 PM 42.8 °F 38.0 °F 33.8 °F 70% 29.37 in 10.0 mi West 8.1 mph - N/A   Clear
1:34 PM 44.6 °F 39.7 °F 33.8 °F 66% 29.36 in 10.0 mi West 9.2 mph - N/A   Clear
1:53 PM 42.8 °F 37.5 °F 33.8 °F 70% 29.36 in 10.0 mi West 9.2 mph - N/A   Clear
2:14 PM 44.6 °F 39.2 °F 33.8 °F 66% 29.37 in 10.0 mi West 10.4 mph - N/A   Clear
2:34 PM 44.6 °F 40.7 °F 32.0 °F 61% 29.37 in 10.0 mi WSW 6.9 mph - N/A   Clear
2:53 PM 42.8 °F - 33.8 °F 70% 29.39 in 10.0 mi Calm Calm - N/A   Clear
3:14 PM 42.8 °F - 33.8 °F 70% 29.40 in 10.0 mi Calm Calm - N/A   Clear
3:34 PM 42.8 °F 39.3 °F 33.8 °F 70% 29.42 in 10.0 mi SW 5.8 mph - N/A   Clear
3:53 PM 42.8 °F 40.1 °F 33.8 °F 70% 29.44 in 10.0 mi SW 4.6 mph - N/A   Clear
4:14 PM 41.0 °F 36.4 °F 33.8 °F 76% 29.45 in 10.0 mi SW 6.9 mph - N/A   Clear
4:34 PM 39.2 °F 34.2 °F 33.8 °F 81% 29.46 in 10.0 mi SW 6.9 mph - N/A   Clear
4:53 PM 39.2 °F 33.6 °F 33.8 °F 81% 29.47 in 10.0 mi SW 8.1 mph - N/A   Clear
5:13 PM 41.0 °F 36.4 °F 33.8 °F 76% 29.49 in 10.0 mi WSW 6.9 mph - N/A   Clear
5:34 PM 37.4 °F 32.1 °F 33.8 °F 87% 29.48 in 10.0 mi West 6.9 mph - N/A   Clear
5:53 PM 39.2 °F 33.6 °F 32.0 °F 75% 29.48 in 10.0 mi WSW 8.1 mph - N/A   Clear
6:13 PM 42.8 °F 37.0 °F 32.0 °F 66% 29.48 in 10.0 mi WSW 10.4 mph - N/A   Clear
6:34 PM 39.2 °F 32.5 °F 32.0 °F 75% 29.50 in 10.0 mi West 10.4 mph - N/A   Clear
6:53 PM 39.2 °F 34.2 °F 32.0 °F 75% 29.50 in 10.0 mi West 6.9 mph - N/A   Clear
7:14 PM 37.4 °F 31.4 °F 32.0 °F 81% 29.50 in 10.0 mi West 8.1 mph - N/A   Clear
7:34 PM 37.4 °F 30.3 °F 32.0 °F 81% 29.50 in 10.0 mi West 10.4 mph - N/A   Clear
7:53 PM 37.4 °F 32.1 °F 32.0 °F 81% 29.51 in 10.0 mi West 6.9 mph - N/A   Clear
8:14 PM 37.4 °F 31.4 °F 32.0 °F 81% 29.51 in 10.0 mi West 8.1 mph - N/A   Clear
8:34 PM 37.4 °F 31.4 °F 32.0 °F 81% 29.51 in 10.0 mi West 8.1 mph - N/A   Clear
8:53 PM 37.4 °F 31.4 °F 32.0 °F 81% 29.51 in 10.0 mi West 8.1 mph - N/A   Clear
9:14 PM 37.4 °F 30.3 °F 32.0 °F 81% 29.52 in 10.0 mi West 10.4 mph - N/A   Clear
9:34 PM 39.2 °F 32.5 °F 32.0 °F 75% 29.52 in 10.0 mi West 10.4 mph - N/A   Clear
9:53 PM 37.4 °F 30.3 °F 30.2 °F 75% 29.53 in 10.0 mi West 10.4 mph - N/A   Clear
10:14 PM 37.4 °F 30.8 °F 30.2 °F 75% 29.54 in 10.0 mi West 9.2 mph - N/A   Clear
10:34 PM 37.4 °F 29.8 °F 30.2 °F 75% 29.55 in 10.0 mi West 11.5 mph - N/A   Clear
10:53 PM 37.4 °F 30.3 °F 30.2 °F 75% 29.55 in 10.0 mi WNW 10.4 mph - N/A   Clear
11:14 PM 37.4 °F 28.9 °F 30.2 °F 75% 29.54 in 10.0 mi WNW 13.8 mph - N/A   Clear
11:33 PM 37.4 °F 29.3 °F 30.2 °F 75% 29.55 in 10.0 mi WNW 12.7 mph - N/A   Clear
11:54 PM 37.4 °F 27.8 °F 30.2 °F 75% 29.55 in 10.0 mi WNW 17.3 mph - N/A   Clear